{"data":{"norad_id":58777,"epoch":"2026-05-24T21:58:18.062112Z","epoch_age_seconds":83104,"freshness":"FRESH","line1":"1 58777U 24011N   26144.91548683  .00000124  00000+0  15766-4 0  9998","line2":"2 58777  53.1603 289.1900 0001502  69.7645 290.3518 15.31696079133235","mean_motion":15.31696079,"eccentricity":0.0001502,"inclination_deg":53.1603,"raan_deg":289.19,"arg_perigee_deg":69.7645,"mean_anomaly_deg":290.3518,"bstar":1.5766e-5,"rev_number":13323,"period_min":94.013428626137,"perigee_km":469.72298046728,"apogee_km":471.78038662782,"semimajor_km":6848.8886835475,"source":"CELESTRAK","updated_at":"2026-05-25T13:38:18.746487Z"}}